Location: Feydey
(46.3431°N, 7.0106°E)
Time: 07:01:07
(UTC+00:00)

SPOT 1/Viking Rocket - Pass Details

Date: 20 June 2021
Orbit: 778 x 793 km, 98.4° (Epoch: 28 July)

Event Time Altitude Azimuth Distance (km) Brightness Sun altitude
Exits shadow 20:40:40 - 172° (S) 2,483 5.6 -10.0°
Reaches altitude 10° 20:41:04 10° 172° (S) 2,323 5.5 -10.0°
Maximum altitude 20:46:11 72° 257° (WSW) 820 3.7 -10.6°
Drops below altitude 10° 20:51:21 10° 342° (NNW) 2,341 7.3 -11.1°
Sets 20:53:41 0° 345° (NNW) 3,275 8.2 -11.4°
